Погода в Тосиме

Япония     34°46′15″N   139°22′04″E
В апреле 2022 года жителям России запретили посещать сайт meteo.paraplan.net по решению Генеральной прокуратуры. Аудитория сайта уменьшилась в 10 раз. Владельцы сайта не видят смысла в поддержке погодного сервера в таких условиях. Сайт будет закрыт в октябре.
темп.,
°C
ветер,
м/с
пор.,
м/с
влажн.,
%
обл.,
%
осадки,
мм/ч
давл.,
гПа
погр.,
м
4 октября, вт
вт400:00+25юз456716 0.1 1018889
03:00+25юз66688 0.1 1017788
06:00+25зюз676976 0.0 1016860
09:00+25юз897015 0.1 10161088
12:00+25юз10117395 0.1 10141025
15:00+25юз12137682 0.1 10121064
18:00+25юз13157798 0.0 10111039
21:00+25юз1416798 0.0 1010974
5 октября, ср
ср500:00+25зюз15178398 0.0 1009949
03:00+25зюз13168698 0.0 1008813
06:00+25зюз1112864 0.0 1009708
09:00+25с447911 0.6 1011384
12:00+25св667282 0.3 1012748
15:00+22св111088100 3.3 1014763
18:00+20св111187100 2.6 1016804
21:00+20св121285100 4.9 1017937
6 октября, чт
чт600:00+20св121285100 1.4 1017846
03:00+20ссв131385100 2.4 10181016
06:00+19св131483100 0.6 10191141
09:00+18св131383100 1.9 10201178
12:00+18св131381100 1.4 10201205
15:00+18св121380100 5.6 10201195
18:00+18ссв141482100 2.1 10201024
21:00+18ссв141484100 3.1 10211143
7 октября, пт
пт700:00+17ссв151589100 3.1 1020977
03:00+18ссв141484100 5.7 10191119
06:00+17ссв141588100 1.9 10191064
09:00+17ссв151589100 5.1 1019961
12:00+17ссв161787100 1.8 1017983
15:00+17ссв181990100 4.9 10151109
18:00+17ссв192092100 11.5 10171206
21:00+17ссв141590100 22.1 1019975
8 октября, сб
сб800:00+17ссв141488100 2.9 1018939
03:00+18ссв151584100 3.1 1017936
06:00+18ссв141579100 0.1 10191008
09:00+19ссв131375100 0.1 10211033
12:00+20ссв121271100 0.0 10201130
15:00+20св131274100 0.1 10201282
18:00+21св13126997 0.1 10211365
21:00+21св12126692 0.2 10221383